Regional Weather Roundup
Issued by NWS

Home | Current Version | Previous Version | Graphics & Text | Print | Product List | Glossary On
Versions: 1 2 3 4 5 6 7 8 9 10 11 12 13 14 15 16 17 18 19 20 21 22 23 24 25 26 27 28 29 30 31 32 33 34 35 36 37 38 39 40 41 42 43 44 45 46 47 48 49 50
000
ASUS43 KLOT 280506
RWRIL

ILLINOIS REGIONAL WEATHER ROUNDUP
NATIONAL WEATHER SERVICE CHICAGO/ROMEOVILLE IL
1100 PM CST FRI FEB 27 2015

NOTE: "FAIR" INDICATES FEW OR NO CLOUDS BELOW 12,000 FEET WITH NO
SIGNIFICANT WEATHER AND/OR OBSTRUCTIONS TO VISIBILITY.

* THESE STATIONS ARE NOT UNDER NWS QUALITY CONTROL. THEY ALSO MAY NOT
  REPORT WEATHER SUCH AS PRECIPITATION OR FOG.

ILZ001-002-007-009-015-016-024-280600-
NORTHWEST ILLINOIS

CITY           SKY/WX    TMP DP  RH WIND       PRES   REMARKS
MOLINE         MOCLDY   -13 -18  78 CALM      30.67F
STERLING*      CLOUDY    -9 -11  92 CALM      30.66S
SAVANNA*       MOCLDY   -10 -15  78 CALM      30.67F
$$

ILZ003-004-008-010-011-017-018-280600-
NORTH CENTRAL ILLINOIS

CITY           SKY/WX    TMP DP  RH WIND       PRES   REMARKS
ROCKFORD       MOCLDY    -5 -11  75 S3        30.67R
FREEPORT*      MOCLDY    -2  -9  72 SW5       30.66S WCI -12
ROCHELLE*      MOCLDY   -15 -19  81 CALM      30.66S
DE KALB*       MOCLDY     0  -8  69 W6        30.64S WCI -12
PERU*          MOCLDY     2  -3  78 S3        30.68S
$$

ILZ005-006-012>014-019>023-280600-
NORTHEAST ILLINOIS

CITY           SKY/WX    TMP DP  RH WIND       PRES   REMARKS
CHICAGO-OHARE  CLEAR      3  -6  66 SW3       30.65F
CHICAGO-MIDWAY PTCLDY     6  -4  63 SW6       30.67F WCI  -4
AURORA         PTCLDY    -9 -16  71 CALM      30.67S
LANSING*       PTCLDY    -6 -10  82 CALM      30.69S
JOLIET*        MOCLDY    -8 -12  83 CALM      30.69S
WAUKEGAN       CLEAR      1  -6  72 SW3       30.64S
DUPAGE AIRPORT PTCLDY    -7 -11  83 S3        30.65S
KANKAKEE*      MOCLDY    -6  -9  85 CALM      30.70R
WHEELING       CLEAR      5  -6  60 CALM      30.67F
MORRIS*        MOCLDY    -4  -7  87 SW3       30.68S
ROMEOVILLE*    PTCLDY    -1  -6  78 SW5       30.68S WCI -11
NORTHERLY ISL    N/A      9  -2  61 W5          N/A  WCI   1
$$

LMZ740>746-280600-
SOUTHERN LAKE MICHIGAN

STATION/POSITION SKY/WX   TEMP    WIND        PRES    VSBY  WAVE
                          AIR SEA DIR/SP/G                  HT/PER
                          (F)     (DEG/KT/KT) (MB)    (MI)  (FT/S)
WAUKEGAN HARBOR             6     250/  7/ 10   N/A
HARRISON CRIB              10     260/ 10/ 12   N/A
BURNHAM HARBOR              9     260/  3/  7   N/A
CALUMET HARBOR              7     200/  3/  5 1037.2F
MICHIGAN CITY               6     190/  6/  6   N/A
$$

ILZ025>027-034>036-040-047-049-050-058-095>099-280600-
WEST-CENTRAL ILLINOIS

CITY           SKY/WX    TMP DP  RH WIND       PRES   REMARKS
QUINCY         MOCLDY     7  -4  60 E6        30.63F WCI  -3
GALESBURG*     MOCLDY    -5  -8  86 CALM      30.66S
MACOMB*        PTCLDY    -5 -10  81 CALM      30.69S
JACKSONVILLE*  PTCLDY     3  -4  72 CALM      30.66F
PITTSFIELD*    MOCLDY     9   0  66 E5        30.65F WCI   0
$$

ILZ028>032-037-038-041>044-048-051>054-059>061-280600-
CENTRAL ILLINOIS

CITY           SKY/WX    TMP DP  RH WIND       PRES   REMARKS
PONTIAC        MOCLDY    -3  -7  85 CALM      30.69S
BLOOMINGTON    MOCLDY     4  -3  72 CALM      30.67S
DECATUR        MOCLDY     0  -5  79 CALM      30.67F
PEORIA         PTCLDY     3  -3  76 CALM      30.68S
LACON*         MOCLDY    -5 -11  75 CALM      30.69S
LINCOLN*       PTCLDY     7   1  79 CALM      30.71S
SPRINGFIELD    PTCLDY     4  -3  73 CALM      30.67F
TAYLORVILLE    MOCLDY     5   1  85 CALM      30.67F
$$

ILZ033-039-045-046-055>057-062-063-280600-
EAST-CENTRAL ILLINOIS

CITY           SKY/WX    TMP DP  RH WIND       PRES   REMARKS
CHAMPAIGN      PTCLDY     5  -3  69 NE5       30.67S WCI  -4
DANVILLE*      PTCLDY     4  -2  78 CALM      30.66S
RANTOUL*       MOCLDY     6   0  74 CALM      30.67S
MATTOON        PTCLDY     5  -2  72 NE3       30.65F
PARIS*         PTCLDY    -1  -4  85 CALM      30.68F
$$

ILZ079-100>102-280600-
SOUTHWEST ILLINOIS

CITY           SKY/WX    TMP DP  RH WIND       PRES   REMARKS
ALTON          MOCLDY    11  -4  49 E6        30.66F WCI   2
BELLEVILLE     CLOUDY    14   3  63 NE7       30.64F WCI   4
CAHOKIA*       MOCLDY    15   3  59 NE6       30.66F WCI   6
SPARTA*        PTCLDY    17   7  65 NE7       30.64F WCI   7
$$

ILZ064>066-069>071-074>076-080>082-084>086-088>090-092>094-280600-
SOUTH-CENTRAL ILLINOIS

CITY           SKY/WX    TMP DP  RH WIND       PRES   REMARKS
CARBONDALE     CLOUDY    19   9  65 E8        30.64S WCI   9
CAIRO*         PTCLDY    24  13  63 NE12      30.62S WCI  13
EFFINGHAM*     PTCLDY     4  -2  74 CALM      30.69S
MARION         MOCLDY    19  10  68 NE7       30.64S WCI  10
MT. VERNON     CLEAR     14   1  57 N5        30.65S WCI   6
CENTRALIA*     CLOUDY    13   2  63 NE3       30.65F
SALEM*         PTCLDY    13   2  63 NE3       30.66S
METROPOLIS*    MOCLDY    21  13  70 NE6       30.62S WCI  13
$$

ILZ067-068-072-073-078-083-087-091-280600-
SOUTHEAST ILLINOIS

CITY           SKY/WX    TMP DP  RH WIND       PRES   REMARKS
LAWRENCEVILLE  PTCLDY     9  -1  64 NE7       30.68F WCI  -2
FLORA*         MOCLDY     9   1  69 N6        30.67F WCI  -1
FAIRFIELD*     CLEAR     14   6  69 N6        30.65S WCI   5
HARRISBURG*    PTCLDY    19  10  67 NE7       30.66S WCI  10
ROBINSON*      PTCLDY     4  -3  74 N3        30.70F
CARMI*         CLEAR     19  11  71 NE7       30.65F WCI  10
$$

ABBREVIATIONS USED IN REMARKS
   TC - TEMPERATURE IN CELSIUS
  WCI - WIND CHILL INDEX
   HX - HEAT INDEX
  VSB - VISIBILITY
$$




USA.gov is the U.S. government's official web portal to all federal, state and local government web resources and services.